This is the latest recevied weather packets stored in our database for station/object KB3YCK-2. If no packets are shown the sender has not sent any weather packets the latest 10 day(s).
| Time | Temp. | Humidity | Pressure | Rain* | Wind** | Luminosity | Snow |
|---|---|---|---|---|---|---|---|
| 1777549807 | 10.56° C | 86% | 1008.3 hPa | 0 mm | - | 90 W/m² | - |
| 1777549505 | 10.56° C | 86% | 1008.2 hPa | 0 mm | - | 76 W/m² | - |
| 1777548912 | 10° C | 87% | 1008.1 hPa | 0 mm | - | 88 W/m² | - |
| 1777548604 | 10° C | 86% | 1008 hPa | 0 mm | - | 81 W/m² | - |
| 1777545304 | 8.89° C | 87% | 1007.9 hPa | 0 mm | - | 26 W/m² | - |
| 1777544409 | 8.89° C | 87% | 1008 hPa | 0 mm | - | 0 W/m² | - |
| 1777544104 | 8.89° C | 87% | 1008.1 hPa | 0 mm | - | 0 W/m² | - |
| 1777542006 | 8.89° C | 87% | 1007.8 hPa | 0 mm | - | 0 W/m² | - |
| 1777541702 | 8.89° C | 87% | 1007.8 hPa | 0 mm | - | 0 W/m² | - |
| 1777536306 | 8.89° C | 87% | 1007.1 hPa | 0 mm | - | 0 W/m² | - |
| 1777532706 | 8.89° C | 87% | 1007.4 hPa | 0 mm | - | 0 W/m² | - |
| 1777531202 | 8.89° C | 87% | 1007.6 hPa | 0 mm | - | 0 W/m² | - |
| 1777529407 | 8.89° C | 87% | 1008 hPa | 0 mm | - | 0 W/m² | - |
| 1777528207 | 8.89° C | 87% | 1008.3 hPa | 0 mm | - | 0 W/m² | - |
| 1777525223 | 8.89° C | 87% | 1008.5 hPa | 0.25 mm | - | 0 W/m² | - |
| 1777521626 | 8.89° C | 87% | 1009.3 hPa | 0.25 mm | - | 0 W/m² | - |
| 1777518605 | 8.89° C | 86% | 1008.9 hPa | 2.03 mm | - | 0 W/m² | - |
| 1777518303 | 8.89° C | 86% | 1009 hPa | 2.29 mm | - | 0 W/m² | - |
| 1777515304 | 8.89° C | 86% | 1009.3 hPa | 3.56 mm | - | 0 W/m² | - |
| 1777513803 | 8.89° C | 86% | 1010.4 hPa | 1.52 mm | - | 0 W/m² | - |
| 1777512308 | 8.89° C | 86% | 1009.9 hPa | 1.52 mm | - | 0 W/m² | - |
| 1777511403 | 8.89° C | 86% | 1009.7 hPa | 2.29 mm | - | 0 W/m² | - |
| 1777511104 | 8.89° C | 86% | 1009.5 hPa | 2.54 mm | - | 0 W/m² | - |
| 1777510503 | 8.89° C | 86% | 1009.6 hPa | 2.54 mm | - | 0 W/m² | - |
| 1777509020 | 8.89° C | 85% | 1009 hPa | 2.03 mm | - | 0 W/m² | - |
* Rain latest hour (hover to see other rain measurements)
** Current wind speed in m/s (hover to see current wind gust speed)